GW4410 Weather Reports


Display with metric or nautical units.
time (UTC)temp
F
wind
direction
speed
MPH
gust
MPH
rain 1hr
in
rain 24hr
in
rain mn
in
humidity
%
barometer
mb
20260505181546 76 209 1.0 2.0 0.00 0.00 0.00 54 1036.3
20260505181043 75 269 4.0 5.0 0.00 0.00 0.00 54 1036.3
20260505180539 76 253 5.0 5.0 0.00 0.00 0.00 52 1036.4
20260505180037 75 311 6.0 6.0 0.00 0.00 0.00 54 1036.2
20260505175537 74 217 3.0 7.0 0.00 0.00 0.00 54 1036.2
20260505175034 74 156 2.0 4.0 0.00 0.00 0.00 55 1036.4
20260505174531 74 222 5.0 8.0 0.00 0.00 0.00 55 1036.5
20260505174027 74 173 2.0 7.0 0.00 0.00 0.00 54 1036.8
20260505173524 74 229 4.0 8.0 0.00 0.00 0.00 55 1036.6
20260505173021 74 250 5.0 7.0 0.00 0.00 0.00 55 1036.7
20260505172519 74 200 6.0 6.0 0.00 0.00 0.00 54 1036.7
20260505172015 75 308 3.0 4.0 0.00 0.00 0.00 55 1036.6
20260505171510 74 251 2.0 7.0 0.00 0.00 0.00 56 1036.5
20260505171007 75 214 5.0 5.0 0.00 0.00 0.00 53 1036.6
20260505170504 74 284 2.0 4.0 0.00 0.00 0.00 55 1036.7
20260505165959 75 211 5.0 5.0 0.00 0.00 0.00 55 1036.8
20260505165450 74 224 4.0 5.0 0.00 0.00 0.00 55 1036.8
20260505164945 75 200 2.0 5.0 0.00 0.00 0.00 54 1036.8
20260505164442 73 237 3.0 4.0 0.00 0.00 0.00 55 1037.0
20260505163940 74 252 4.0 5.0 0.00 0.00 0.00 58 1036.9
20260505163438 72 230 2.0 6.0 0.00 0.00 0.00 59 1037.2
20260505162937 73 245 6.0 9.0 0.00 0.00 0.00 57 1037.1
20260505162433 73 282 4.0 5.0 0.00 0.00 0.00 57 1037.2
20260505161930 73 258 2.0 3.0 0.00 0.00 0.00 58 1037.4
20260505161426 74 253 2.0 4.0 0.00 0.00 0.00 55 1037.4
20260505160924 73 309 3.0 5.0 0.00 0.00 0.00 55 1037.5
20260505160422 75 250 1.0 2.0 0.00 0.00 0.00 57 1037.5
20260505152858 71 251 6.0 6.0 0.00 0.00 0.00 56 1037.8
20260505152355 72 217 7.0 9.0 0.00 0.00 0.00 56 1037.9
20260505151855 71 246 4.0 6.0 0.00 0.00 0.00 56 1037.8
20260505151352 71 311 3.0 5.0 0.00 0.00 0.00 57 1037.9
20260505150849 71 302 3.0 4.0 0.00 0.00 0.00 57 1038.1
20260505150347 72 244 4.0 4.0 0.00 0.00 0.00 57 1037.9
20260505140316 67 217 4.0 4.0 0.00 0.00 0.00 69 1037.7
20260505130240 59 200 0.0 2.0 0.00 0.00 0.00 80 1037.4
20260505124731 58 302 2.0 3.0 0.00 0.00 0.00 79 1037.7
20260505124228 58 237 1.0 3.0 0.00 0.00 0.00 79 1038.0
20260505123723 58 259 4.0 4.0 0.00 0.00 0.00 79 1037.9
20260505123220 58 319 1.0 2.0 0.00 0.00 0.00 81 1037.8
20260505122716 58 340 2.0 4.0 0.00 0.00 0.00 80 1038.0
20260505122214 58 295 4.0 4.0 0.00 0.00 0.00 80 1038.0
20260505121710 58 319 2.0 3.0 0.00 0.00 0.00 81 1038.1
20260505121207 57 265 2.0 5.0 0.00 0.00 0.00 81 1038.1
20260505120703 57 309 3.0 4.0 0.00 0.00 0.00 82 1038.1
20260505120159 57 206 2.0 3.0 0.00 0.00 0.00 82 1038.1
20260505115652 57 234 3.0 4.0 0.00 0.00 0.00 82 1038.1
20260505115151 57 265 4.0 5.0 0.00 0.00 0.00 82 1038.2
20260505114648 57 235 2.0 3.0 0.00 0.00 0.00 82 1038.0
20260505114144 57 264 2.0 3.0 0.00 0.00 0.00 84 1038.1
20260505113640 56 306 4.0 4.0 0.00 0.00 0.00 84 1038.1
20260505113137 56 292 2.0 3.0 0.00 0.00 0.00 86 1038.0
20260505112633 55 260 2.0 4.0 0.00 0.00 0.00 87 1038.2
20260505112132 55 297 2.0 4.0 0.00 0.00 0.00 88 1037.9
20260505111626 54 297 3.0 4.0 0.00 0.00 0.00 89 1037.9
20260505111122 53 287 2.0 4.0 0.00 0.00 0.00 90 1037.7
20260505110618 53 260 2.0 4.0 0.00 0.00 0.00 90 1037.7
20260505110115 54 290 2.0 3.0 0.00 0.00 0.00 90 1037.8
20260505102051 51 254 4.0 4.0 0.00 0.00 0.00 95 1037.4
20260505101549 51 300 4.0 4.0 0.00 0.00 0.00 95 1037.1
20260505101044 51 292 3.0 4.0 0.00 0.00 0.00 95 1037.3
20260505100541 51 311 4.0 4.0 0.00 0.00 0.00 95 1037.0
20260505100039 51 330 4.0 5.0 0.00 0.00 0.00 95 1037.0
20260505095535 51 307 3.0 3.0 0.00 0.00 0.00 95 1037.0
20260505095032 51 285 3.0 4.0 0.00 0.00 0.00 95 1037.1
20260505094528 51 320 3.0 4.0 0.00 0.00 0.00 95 1037.1
20260505094025 51 329 2.0 3.0 0.00 0.00 0.00 95 1037.0
20260505093521 51 306 2.0 4.0 0.00 0.00 0.00 95 1036.9
20260505093019 51 291 3.0 4.0 0.00 0.00 0.00 94 1037.0
20260505092516 51 310 4.0 5.0 0.00 0.00 0.00 94 1037.0
20260505092014 51 307 3.0 5.0 0.00 0.00 0.00 94 1036.8
20260505091511 51 300 4.0 5.0 0.00 0.00 0.00 94 1037.0
20260505091009 51 315 4.0 4.0 0.00 0.00 0.00 94 1036.9
20260505090507 51 343 3.0 4.0 0.00 0.00 0.00 93 1036.8
20260505090004 51 318 4.0 4.0 0.00 0.00 0.00 93 1036.9
20260505085502 51 295 4.0 5.0 0.00 0.00 0.00 94 1036.9
20260505085000 51 298 2.0 2.0 0.00 0.00 0.00 94 1037.0
20260505084458 50 323 2.0 2.0 0.00 0.00 0.00 94 1037.0
20260505083955 50 328 3.0 3.0 0.00 0.00 0.00 94 1037.2
20260505083452 50 327 3.0 3.0 0.00 0.00 0.00 94 1037.0
20260505082948 50 341 3.0 3.0 0.00 0.00 0.00 94 1037.1
20260505082444 50 355 1.0 2.0 0.00 0.00 0.00 93 1037.2
20260505081942 50 298 1.0 2.0 0.00 0.00 0.00 93 1037.2
20260505081438 50 321 2.0 3.0 0.00 0.00 0.00 93 1037.1
20260505080935 50 345 2.0 2.0 0.00 0.00 0.00 92 1037.1
20260505080431 50 341 3.0 3.0 0.00 0.00 0.00 92 1037.0
20260505075926 50 348 2.0 2.0 0.00 0.00 0.00 92 1037.0
20260505075424 51 307 2.0 2.0 0.00 0.00 0.00 91 1037.0
20260505074921 51 317 2.0 2.0 0.00 0.00 0.00 91 1037.0
20260505074418 51 308 3.0 4.0 0.00 0.00 0.00 90 1037.0
20260505073915 51 274 2.0 3.0 0.00 0.00 0.00 90 1037.1
20260505073413 51 301 3.0 3.0 0.00 0.00 0.00 89 1037.1
20260505072910 51 301 3.0 3.0 0.00 0.00 0.00 89 1036.9
20260505072406 51 256 3.0 3.0 0.00 0.00 0.00 89 1037.0
20260505071903 51 268 0.0 2.0 0.00 0.00 0.00 88 1037.1
20260505071358 51 295 3.0 3.0 0.00 0.00 0.00 88 1037.1
20260505070857 51 316 2.0 2.0 0.00 0.00 0.00 89 1037.0
20260505070353 51 327 0.0 0.0 0.00 0.00 0.00 88 1037.1
20260505065848 51 294 2.0 2.0 0.00 0.00 0.00 88 1037.2
20260505065345 51 308 2.0 3.0 0.00 0.00 0.00 88 1037.2
20260505064842 51 318 2.0 2.0 0.00 0.00 0.00 87 1037.3
20260505064339 51 300 0.0 3.0 0.00 0.00 0.00 87 1037.4
20260505063837 51 305 3.0 3.0 0.00 0.00 0.00 87 1037.2
20260505063327 51 267 2.0 2.0 0.00 0.00 0.00 87 1037.3
20260505062824 51 314 2.0 3.0 0.00 0.00 0.00 86 1037.2
20260505062321 51 284 2.0 3.0 0.00 0.00 0.00 86 1037.3
20260505061818 51 321 1.0 2.0 0.00 0.00 0.00 86 1037.3
20260505061316 51 265 2.0 2.0 0.00 0.00 0.00 86 1037.4
20260505060813 52 279 2.0 2.0 0.00 0.00 0.00 85 1037.3
20260505060310 51 321 2.0 2.0 0.00 0.00 0.00 85 1037.4
20260505055805 51 248 2.0 3.0 0.00 0.00 0.00 85 1037.4
20260505055303 51 284 2.0 2.0 0.00 0.00 0.00 84 1037.5
20260505054759 52 281 2.0 2.0 0.00 0.00 0.00 83 1037.6
20260505054257 52 281 2.0 2.0 0.00 0.00 0.00 83 1037.7
20260505053755 52 310 2.0 2.0 0.00 0.00 0.00 81 1037.7
20260505053251 52 310 2.0 2.0 0.00 0.00 0.00 81 1037.7
20260505052748 52 310 2.0 2.0 0.00 0.00 0.00 81 1037.7
20260505052245 52 308 3.0 3.0 0.00 0.00 0.00 81 1037.6
20260505051743 51 333 4.0 4.0 0.00 0.00 0.00 82 1037.6
20260505051240 51 314 0.0 2.0 0.00 0.00 0.00 82 1037.7
20260505050738 51 314 0.0 2.0 0.00 0.00 0.00 82 1037.7
20260505050236 52 3 2.0 2.0 0.00 0.00 0.00 79 1037.8
20260505041706 53 348 1.0 2.0 0.00 0.00 0.00 75 1038.1
20260505041203 53 331 2.0 3.0 0.00 0.00 0.00 76 1038.0
20260505040700 53 319 2.0 3.0 0.00 0.00 0.00 75 1038.0
20260505040157 53 296 2.0 3.0 0.00 0.00 0.00 75 1038.0
20260505035654 53 320 0.0 2.0 0.00 0.00 0.00 75 1037.9
20260505035150 53 304 3.0 3.0 0.00 0.00 0.00 76 1038.0
20260505034647 53 313 2.0 4.0 0.00 0.00 0.00 75 1038.1
20260505034144 54 311 2.0 2.0 0.00 0.00 0.00 75 1038.0
20260505033640 54 303 2.0 2.0 0.00 0.00 0.00 74 1038.0
20260505033139 54 335 2.0 3.0 0.00 0.00 0.00 74 1038.1
20260505032637 54 314 2.0 4.0 0.00 0.00 0.00 73 1037.9
20260505032132 54 293 3.0 3.0 0.00 0.00 0.00 74 1038.0
20260505031630 53 345 2.0 3.0 0.00 0.00 0.00 75 1038.0
20260505031125 53 297 2.0 3.0 0.00 0.00 0.00 75 1037.8
20260505030623 53 313 2.0 2.0 0.00 0.00 0.00 76 1038.0
20260505030119 53 292 2.0 3.0 0.00 0.00 0.00 75 1038.0
20260505025615 53 274 2.0 3.0 0.00 0.00 0.00 76 1037.8
20260505025114 53 307 2.0 3.0 0.00 0.00 0.00 76 1038.0
20260505024611 53 301 2.0 2.0 0.00 0.00 0.00 76 1038.0
20260505024108 53 308 4.0 4.0 0.00 0.00 0.00 77 1037.9
20260505023605 53 272 0.0 3.0 0.00 0.00 0.00 77 1038.0
20260505023102 53 301 0.0 2.0 0.00 0.00 0.00 76 1038.1
20260505022600 53 236 1.0 3.0 0.00 0.00 0.00 77 1038.0
20260505022056 53 265 3.0 3.0 0.00 0.00 0.00 76 1038.0
20260505021554 53 312 2.0 3.0 0.00 0.00 0.00 76 1038.2
20260505021050 53 352 1.0 3.0 0.00 0.00 0.00 76 1038.0
20260505020550 53 317 2.0 4.0 0.00 0.00 0.00 76 1038.2
20260505020047 53 254 3.0 3.0 0.00 0.00 0.00 77 1038.1
20260505015544 53 332 3.0 3.0 0.00 0.00 0.00 76 1038.1
20260505015041 53 310 3.0 3.0 0.00 0.00 0.00 76 1038.1
20260505014537 53 300 3.0 4.0 0.00 0.00 0.00 75 1037.9
20260505014035 53 295 3.0 3.0 0.00 0.00 0.00 76 1037.8
20260505013532 53 316 4.0 4.0 0.00 0.00 0.00 76 1037.8
20260505013030 53 322 2.0 3.0 0.00 0.00 0.00 76 1038.1
20260505012528 53 322 2.0 3.0 0.00 0.00 0.00 76 1037.7
20260505012025 54 271 0.0 4.0 0.00 0.00 0.00 75 1037.8
20260505011520 54 286 3.0 3.0 0.00 0.00 0.00 74 1037.8
20260505011017 54 300 2.0 4.0 0.00 0.00 0.00 74 1037.8
20260505010512 54 11 2.0 2.0 0.00 0.00 0.00 73 1037.7
20260505010009 54 327 2.0 4.0 0.00 0.00 0.00 72 1037.5
20260505005505 55 352 2.0 4.0 0.00 0.00 0.00 72 1037.5
20260505005004 55 308 2.0 4.0 0.00 0.00 0.00 71 1037.4
20260505004500 55 285 3.0 4.0 0.00 0.00 0.00 70 1037.5
20260505003956 55 248 3.0 4.0 0.00 0.00 0.00 69 1037.4
20260505003454 55 312 3.0 3.0 0.00 0.00 0.00 68 1037.3
20260505002950 55 273 3.0 5.0 0.00 0.00 0.00 68 1037.2
20260505002446 56 304 3.0 5.0 0.00 0.00 0.00 67 1037.2
20260505001945 56 265 4.0 4.0 0.00 0.00 0.00 66 1037.1
20260505001442 56 320 8.0 9.0 0.00 0.00 0.00 66 1036.9
20260505000939 56 277 4.0 4.0 0.00 0.00 0.00 65 1036.8
20260505000437 57 256 2.0 5.0 0.00 0.00 0.00 64 1036.7
20260504235933 57 307 2.0 6.0 0.00 0.00 0.00 63 1036.6
20260504235431 57 320 3.0 4.0 0.00 0.00 0.00 63 1036.7
20260504234926 57 317 3.0 5.0 0.00 0.00 0.00 62 1036.6
20260504234424 58 252 4.0 6.0 0.00 0.00 0.00 61 1036.3
20260504233920 58 311 3.0 6.0 0.00 0.00 0.00 60 1036.5
20260504233417 58 250 4.0 8.0 0.00 0.00 0.00 60 1036.4
20260504232914 59 202 3.0 6.0 0.00 0.00 0.00 61 1036.4
20260504232411 59 262 5.0 5.0 0.00 0.00 0.00 61 1036.4
20260504231908 59 238 2.0 3.0 0.00 0.00 0.00 60 1036.3
20260504231404 59 273 3.0 3.0 0.00 0.00 0.00 60 1036.3
20260504230900 60 213 6.0 6.0 0.00 0.00 0.00 59 1036.3
20260504230357 60 219 2.0 6.0 0.00 0.00 0.00 58 1036.2
20260504225856 60 211 6.0 7.0 0.00 0.00 0.00 57 1036.2
20260504225352 60 231 4.0 4.0 0.00 0.00 0.00 57 1036.2
20260504224850 61 173 2.0 2.0 0.00 0.00 0.00 57 1036.1
20260504224346 61 229 2.0 4.0 0.00 0.00 0.00 57 1036.1
20260504223843 61 227 3.0 4.0 0.00 0.00 0.00 56 1036.1
20260504223338 62 263 2.0 3.0 0.00 0.00 0.00 54 1036.3
20260504222835 62 314 2.0 3.0 0.00 0.00 0.00 54 1036.1
20260504222332 62 207 2.0 6.0 0.00 0.00 0.00 53 1036.2
20260504221831 62 251 7.0 7.0 0.00 0.00 0.00 52 1036.2
20260504221327 63 214 6.0 6.0 0.00 0.00 0.00 51 1036.2
20260504220824 63 334 1.0 5.0 0.00 0.00 0.00 52 1036.0
20260504220321 63 308 4.0 6.0 0.00 0.00 0.00 50 1036.1
20260504215818 63 238 4.0 5.0 0.00 0.00 0.00 50 1036.3
20260504215314 63 248 6.0 15.0 0.00 0.00 0.00 49 1036.1
20260504214810 63 204 6.0 8.0 0.00 0.00 0.00 48 1036.4
20260504214308 64 338 1.0 7.0 0.00 0.00 0.00 49 1036.1
20260504213804 64 302 6.0 6.0 0.00 0.00 0.00 49 1036.1
20260504213300 64 222 2.0 4.0 0.00 0.00 0.00 50 1036.1
20260504212758 64 270 6.0 6.0 0.00 0.00 0.00 50 1036.2
20260504212254 64 206 5.0 5.0 0.00 0.00 0.00 50 1036.2
20260504211751 63 298 3.0 4.0 0.00 0.00 0.00 51 1036.1
20260504211247 63 273 2.0 6.0 0.00 0.00 0.00 50 1036.1
20260504210745 64 253 5.0 7.0 0.00 0.00 0.00 49 1036.4
20260504210242 64 218 3.0 11.0 0.00 0.00 0.00 49 1036.1
20260504205739 64 277 2.0 5.0 0.00 0.00 0.00 49 1036.2
20260504205237 65 243 3.0 6.0 0.00 0.00 0.00 49 1035.9
20260504204735 65 259 8.0 9.0 0.00 0.00 0.00 47 1036.0
20260504204233 65 219 8.0 9.0 0.00 0.00 0.00 46 1036.0
20260504203732 65 242 7.0 7.0 0.00 0.00 0.00 46 1036.1
20260504203230 65 261 2.0 10.0 0.00 0.00 0.00 46 1035.9
20260504202730 66 251 5.0 11.0 0.00 0.00 0.00 44 1035.8
20260504202227 67 128 1.0 6.0 0.00 0.00 0.00 41 1035.9
20260504201724 68 226 1.0 4.0 0.00 0.00 0.00 40 1036.1
20260504201221 67 305 5.0 11.0 0.00 0.00 0.00 41 1036.0
20260504200719 67 225 5.0 6.0 0.00 0.00 0.00 40 1036.0
20260504200214 68 214 4.0 10.0 0.00 0.00 0.00 40 1036.0
20260504195711 69 299 6.0 6.0 0.00 0.00 0.00 38 1036.0
20260504195206 68 239 4.0 7.0 0.00 0.00 0.00 39 1036.0
20260504194703 69 235 3.0 4.0 0.00 0.00 0.00 39 1036.1
20260504194159 71 240 4.0 6.0 0.00 0.00 0.00 35 1036.1
20260504193656 71 333 3.0 4.0 0.00 0.00 0.00 35 1035.8
20260504193154 70 278 3.0 6.0 0.00 0.00 0.00 35 1036.0
20260504192652 69 310 5.0 8.0 0.00 0.00 0.00 36 1036.1
20260504192150 70 237 3.0 7.0 0.00 0.00 0.00 36 1036.2
20260504191648 70 300 5.0 5.0 0.00 0.00 0.00 33 1036.2
20260504191138 69 282 5.0 9.0 0.00 0.00 0.00 33 1036.1
20260504190634 69 242 3.0 9.0 0.00 0.00 0.00 35 1036.3
20260504190131 70 36 2.0 6.0 0.00 0.00 0.00 35 1036.1
20260504185627 70 290 3.0 4.0 0.00 0.00 0.00 34 1036.4
20260504185124 70 139 2.0 4.0 0.00 0.00 0.00 36 1036.2
20260504184620 69 340 1.0 8.0 0.00 0.00 0.00 40 1036.4
20260504184115 69 209 5.0 6.0 0.00 0.00 0.00 36 1036.4
20260504183613 70 320 3.0 5.0 0.00 0.00 0.00 34 1036.5
20260504183110 69 308 8.0 11.0 0.00 0.00 0.00 35 1036.6
20260504182607 71 293 4.0 7.0 0.00 0.00 0.00 33 1036.6
20260504182105 69 337 2.0 4.0 0.00 0.00 0.00 35 1036.6